Station WAHV2 - 8631044 - Wachapreague, VA Image indicating link to RSS feed of recent meteorological observations for station WAHV2


Conditions at WAHV2 as of
(10:00 pm EDT on 04/18/2024)
0200 GMT on 04/19/2024:
     

Click on the graph icon in the table below to see a time series plot of the last five days of that observation.

5-day plot - Wind Direction Wind Direction (WDIR): NE ( 50 deg true )
5-day plot - Wind Speed Wind Speed (WSPD): 19.0 kts
5-day plot - Wind Gust Wind Gust (GST): 26.0 kts
5-day plot - Atmospheric Pressure Atmospheric Pressure (PRES):30.09 in
5-day plot - Pressure Tendency Pressure Tendency (PTDY):+0.06 in ( Rising )
5-day plot - Air Temperature Air Temperature (ATMP): 51.3 °F
5-day plot - Water Temperature Water Temperature (WTMP): 66.7 °F
5-day plot - Wind Chill Wind Chill (CHILL): 45.0 °F
5-day plot - Wind Speed at 10 Meters Wind Speed at 10 meters (WSPD10M): 19.4 kts
5-day plot - Wind Speed at 20 Meters Wind Speed at 20 meters (WSPD20M): 21.4 kts
5-day plot -  Wind Speed, Wind Gust and Atmospheric Pressure Combined plot of Wind Speed, Gust, and Air Pressure
NOS Water Level Observation Network Water Level
Previous observations
TIME
(EDT)
5-day plot - Wind Direction
WDIR
 
5-day plot - Wind Speed
WSPD
kts
5-day plot - Wind Gust
GST
kts
5-day plot - Wave Height
WVHT
ft
5-day plot - Dominant Wave Period
DPD
sec
5-day plot - Average Wave Period
APD
sec
5-day plot - Mean Wave Direction
MWD
 
5-day plot - Atmospheric Pressure
PRES
in
5-day plot - Pressure Tendency
PTDY
in
5-day plot - Air Temperature
ATMP
°F
5-day plot - Water Temperature
WTMP
°F
5-day plot - Dew Point
DEWP
°F
5-day plot - Salinity
SAL
psu
5-day plot - Visibility
VIS
nmi
5-day plot - Tide (above MLLW)
TIDE
ft
2024-04-18 09:54 pm NE 19.0 27.0----30.08- 50.9 66.7----
2024-04-18 09:48 pm NE 21.0 28.0----30.08- 50.7 66.9----
2024-04-18 09:42 pm NE 22.0 26.0----30.08- 50.9 66.9----
2024-04-18 09:36 pm NE 22.0 27.0----30.08- 51.1 67.1----
2024-04-18 09:30 pmENE 22.0 27.0----30.08- 50.9 67.3----
2024-04-18 09:24 pm NE 24.1 28.0----30.07- 51.1 67.3----
2024-04-18 09:18 pm NE 22.9 26.0----30.07- 51.3 67.3----
2024-04-18 09:12 pmENE 20.0 27.0----30.07- 51.6 67.3----
2024-04-18 09:06 pmENE 21.0 26.0----30.06- 51.4 67.5----
2024-04-18 09:00 pmENE 21.0 28.0----30.06+0.05 51.3 67.5----
2024-04-18 08:54 pm NE 20.0 27.0----30.06- 51.4 67.6----
2024-04-18 08:48 pmENE 21.0 26.0----30.06- 52.0 67.6----
2024-04-18 08:42 pmENE 22.9 27.0----30.05- 51.6 67.8----
2024-04-18 08:36 pmENE 19.0 27.0----30.05- 52.5 67.8----
2024-04-18 08:30 pmENE 22.0 27.0----30.04- 51.6 67.8----
2024-04-18 08:24 pmENE 22.0 26.0----30.04- 52.0 67.8----
2024-04-18 08:18 pmENE 21.0 25.1----30.03- 52.0 67.8----
2024-04-18 08:12 pm NE 20.0 24.1----30.03- 52.2 67.8----
2024-04-18 08:06 pmENE 19.0 24.1----30.03- 52.5 68.0----
2024-04-18 08:00 pmENE 18.1 22.9----30.03+0.04 52.5 68.0----
2024-04-18 07:54 pmENE 17.1 24.1----30.03- 52.7 68.0----
2024-04-18 07:48 pmENE 19.0 22.0----30.03- 52.5 68.2----
2024-04-18 07:42 pmENE 19.0 22.9----30.03- 52.5 68.2----
2024-04-18 07:36 pmENE 20.0 22.9----30.03- 52.7 68.2----
2024-04-18 07:30 pm E 18.1 21.0----30.03- 53.1 68.4----
2024-04-18 07:24 pmENE 19.0 22.9----30.03- 53.1 68.4----
2024-04-18 07:00 pmENE 18.1 21.0----30.02+0.05 53.8 68.5----
2024-04-18 06:54 pmENE 19.0 21.0----30.02- 53.8 68.5----
2024-04-18 06:48 pmENE 17.1 21.0----30.03- 54.3 68.5----
2024-04-18 06:42 pmENE 15.9 20.0----30.03- 54.7 68.5----
2024-04-18 06:36 pmENE 17.1 20.0----30.03- 54.9 68.5----
2024-04-18 06:30 pmENE 17.1 20.0----30.02- 54.5 68.7----
2024-04-18 06:24 pmENE 18.1 21.0----30.02- 55.0 68.7----
2024-04-18 06:18 pmENE 15.9 21.0----30.02- 55.4 68.7----
2024-04-18 06:12 pmENE 15.9 19.0----30.02- 55.2 68.7----
2024-04-18 06:06 pmENE 15.0 19.0----30.01- 55.4 68.7----
2024-04-18 06:00 pmENE 15.9 18.1----30.01+0.05- 68.9----
2024-04-18 05:54 pm E 15.9 20.0----30.01-- 68.9----
2024-04-18 05:48 pm E 14.0 17.1----30.01- 56.1 68.9----
2024-04-18 05:42 pm E 14.0 17.1----30.01- 56.3 68.9----
2024-04-18 05:36 pm E 13.0 15.0----30.01- 55.9 68.9----
2024-04-18 05:30 pm E 13.0 15.0----30.00- 56.3 68.9----
2024-04-18 05:24 pm E 13.0 15.0----30.00- 56.7 68.9----
2024-04-18 05:18 pmENE 14.0 18.1----30.00- 56.3 68.9----
2024-04-18 05:12 pm E 13.0 15.9----29.99- 56.8 68.9----
2024-04-18 05:06 pm E 14.0 15.9----29.99- 56.7 68.9----
2024-04-18 05:00 pm E 12.0 15.0----29.99+0.02 57.0 68.9----
2024-04-18 04:54 pmENE 12.0 14.0----29.98- 57.4 68.9----
2024-04-18 04:48 pm E 12.0 14.0----29.98- 57.0 68.9----
2024-04-18 04:42 pmENE 13.0 15.9----29.98- 57.0 68.9----
2024-04-18 04:36 pm E 12.0 13.0----29.98- 57.0 68.9----
2024-04-18 04:30 pmENE 9.9 14.0----29.98- 57.6 68.9----
2024-04-18 04:24 pm E 9.9 12.0----29.98- 57.2 68.9----
2024-04-18 04:18 pm E 9.9 12.0----29.97- 57.7 68.7----
2024-04-18 04:12 pm E 9.9 12.0----29.97- 57.7 68.7----
2024-04-18 04:06 pm E 8.0 12.0----29.98- 59.2 68.7----
2024-04-18 04:00 pm E 11.1 14.0----29.97+0.01 59.0 68.7----
2024-04-18 03:54 pm E 12.0 15.0----29.97- 59.5 68.5----
2024-04-18 03:48 pm E 12.0 15.0----29.97- 60.1 68.5----
2024-04-18 03:42 pm E 12.0 14.0----29.96- 60.8 68.5----
2024-04-18 03:36 pm E 12.0 15.9----29.97- 61.0 68.5----
2024-04-18 03:30 pm E 9.9 12.0----29.97- 61.5 68.5----
2024-04-18 03:24 pmESE 8.0 12.0----29.97- 62.2 68.4----
2024-04-18 03:18 pm E 9.9 14.0----29.97- 61.9 68.4----
2024-04-18 03:12 pmESE 8.9 9.9----29.96- 63.3 68.2----
2024-04-18 03:06 pmESE 8.9 13.0----29.96- 63.9 68.2----
2024-04-18 03:00 pmESE 7.0 8.9----29.96+0.00 64.8 68.0----
2024-04-18 02:54 pmESE 7.0 8.9----29.96- 64.9 67.8----
2024-04-18 02:48 pmESE 7.0 8.0----29.96- 64.6 67.6----
2024-04-18 02:42 pm E 8.0 9.9----29.97- 64.0 67.6----
2024-04-18 02:36 pmESE 7.0 8.9----29.96- 64.4 67.5----
2024-04-18 02:30 pm E 8.9 11.1----29.97- 63.9 67.5----
2024-04-18 02:24 pmESE 5.1 8.9----29.97- 66.2 67.5----
2024-04-18 02:18 pm E 9.9 12.0----29.96- 65.5 67.3----
2024-04-18 02:12 pm E 8.0 12.0----29.97- 66.2 67.1----
2024-04-18 02:06 pm E 7.0 12.0----29.97- 66.9 66.9----
2024-04-18 02:00 pm E 11.1 13.0----29.97+0.01 66.4 66.6----
2024-04-18 01:54 pmESE 5.1 8.9----29.97- 67.3 66.4----
2024-04-18 01:48 pmENE 2.9 15.0----29.97- 68.7 66.2----
2024-04-18 01:42 pm N 8.0 13.0----29.97- 75.2 66.2----
2024-04-18 01:36 pm N 6.0 14.0----29.96- 75.9 66.2----
2024-04-18 01:30 pm N 6.0 9.9----29.96- 75.9 66.2----
2024-04-18 01:24 pm N 6.0 12.0----29.96- 75.7 66.2----
2024-04-18 01:18 pmNNW 6.0 11.1----29.96- 76.5 66.0----
2024-04-18 01:12 pmNNE 6.0 12.0----29.96- 75.7 65.8----
2024-04-18 01:06 pmNNW 6.0 12.0----29.96- 75.7 65.8----
2024-04-18 01:00 pm N 7.0 14.0----29.96+0.01 75.2 65.8----
2024-04-18 12:54 pmNNW 5.1 11.1----29.96- 75.4 66.0----
2024-04-18 12:48 pm N 8.9 17.1----29.96- 74.3 66.0----
2024-04-18 12:42 pm N 7.0 14.0----29.96- 74.3 66.0----
2024-04-18 12:36 pm N 6.0 11.1----29.96- 74.1 66.2----
2024-04-18 12:30 pm N 8.9 13.0----29.96- 73.4 66.2----
2024-04-18 12:24 pmNNE 8.9 14.0----29.96- 73.4 66.6----
2024-04-18 12:18 pmNNW 2.9 9.9----29.96- 75.4 66.9----
2024-04-18 12:12 pmNNW 5.1 9.9----29.96- 74.3 66.9----
2024-04-18 12:06 pmNNW 4.1 9.9----29.96- 75.4 66.9----
2024-04-18 12:00 pmNNW 2.9 8.9----29.96+0.01 75.2 66.9----
2024-04-18 11:54 amNNW 7.0 11.1----29.96- 73.6 66.9----
2024-04-18 11:48 amNNW 2.9 12.0----29.96- 74.8 66.9----
2024-04-18 11:42 amNNW 8.0 14.0----29.96- 73.0 66.9----
2024-04-18 11:36 am NW 2.9 9.9----29.96- 74.1 66.7----
2024-04-18 11:30 am N 9.9 13.0----29.96- 72.1 66.7----
2024-04-18 11:24 am N 8.0 12.0----29.96- 72.0 66.7----
2024-04-18 11:18 amNNE 7.0 13.0----29.96- 72.3 66.6----
2024-04-18 11:12 am N 7.0 13.0----29.96- 72.0 66.6----
2024-04-18 11:06 am N 8.0 14.0----29.96- 71.8 66.4----
2024-04-18 11:00 am N 8.9 13.0----29.96+0.02 71.1 66.2----
2024-04-18 10:54 am N 6.0 9.9----29.96- 71.6 66.2----
2024-04-18 10:48 amNNE 6.0 11.1------------
2024-04-18 10:42 amNNW 4.1 9.9------------
2024-04-18 10:36 am N 7.0 12.0------------
2024-04-18 10:30 am NW 4.1 9.9----29.96- 72.0 65.8----
2024-04-18 10:24 am NW 4.1 11.1----29.96- 71.8 65.7----
2024-04-18 10:18 am N 5.1 7.0----29.95- 71.1 65.7----
2024-04-18 10:12 am N 5.1 9.9----29.95- 71.2 65.5----
2024-04-18 10:06 am N 8.0 11.1----29.95- 70.0 65.5----
2024-04-18 10:00 am N 5.1 9.9----29.95+0.03 70.7 65.3----
2024-04-18 09:54 am NW 2.9 11.1----29.95- 70.5 65.3----
2024-04-18 09:48 amNNW 5.1 11.1----29.95- 69.8 65.1----
2024-04-18 09:42 amNNW 7.0 13.0----29.95- 69.3 65.1----
2024-04-18 09:36 am NW 2.9 6.0----29.95- 70.7 65.1----
2024-04-18 09:30 am NW 1.9 6.0----29.95- 71.4 65.1----
2024-04-18 09:24 amNNW 2.9 6.0----29.95- 70.7 64.9----
2024-04-18 09:18 amNNW 2.9 5.1----29.95- 70.7 64.9----
2024-04-18 09:12 amNNW 1.0 6.0----29.95- 71.2 64.8----
2024-04-18 09:06 amNNW 4.1 7.0----29.94- 69.8 64.8----
2024-04-18 09:00 amWNW 1.9 4.1----29.94+0.05 70.9 64.6----
2024-04-18 08:54 am NW 1.9 5.1----29.95- 70.3 64.6----
2024-04-18 08:48 am NW 1.9 8.0----29.94- 70.5 64.6----
2024-04-18 08:42 amNNW 4.1 8.0----29.94- 70.2 64.6----
2024-04-18 08:36 am NW 1.9 9.9----29.94- 70.9 64.6----
2024-04-18 08:30 am NW 2.9 7.0----29.94- 70.9 64.6----
2024-04-18 08:24 amNNW 2.9 7.0----29.94- 71.4 64.6----
2024-04-18 08:18 amWNW 2.9 7.0----29.94- 71.2 64.4----
2024-04-18 08:12 am NW 1.9 5.1----29.94- 70.9 64.4----
2024-04-18 08:06 amWNW 1.9 5.1----29.94- 70.2 64.4----
2024-04-18 08:00 amWNW 1.9 4.1----29.94+0.08 69.8 64.4----
2024-04-18 07:54 am NW 1.9 5.1----29.94- 70.3 64.4----
2024-04-18 07:48 am- 0.0 2.9----29.93- 71.1 64.4----
2024-04-18 07:42 am- 0.0 2.9----29.93- 70.3 64.4----
2024-04-18 07:36 amWNW 1.9 2.9----29.94- 68.9 64.4----
2024-04-18 07:30 amNNW 1.9 5.1----29.93- 69.4 64.4----
2024-04-18 07:24 amWNW 1.0 1.9----29.93- 69.1 64.4----
2024-04-18 07:18 am W 1.0 2.9----29.93- 68.4 64.4----
2024-04-18 07:12 amWNW 1.0 2.9----29.93- 66.7 64.6----
2024-04-18 07:06 amWNW 1.9 2.9----29.92- 66.6 64.6----
2024-04-18 07:00 amWNW 1.9 4.1----29.92+0.06 66.9 64.6----
2024-04-18 06:54 am W 1.9 4.1----29.92- 67.1 64.6----
2024-04-18 06:48 am W 2.9 5.1----29.91- 66.7 64.4----
2024-04-18 06:42 amWNW 1.9 5.1----29.91- 66.6 64.6----
2024-04-18 06:36 am W 2.9 5.1----29.91- 66.4 64.6----
2024-04-18 06:30 am W 2.9 6.0----29.91- 66.4 64.6----
2024-04-18 06:24 am W 1.9 6.0----29.90- 66.4 64.6----
2024-04-18 06:18 amWNW 2.9 5.1----29.90- 66.4 64.6----
2024-04-18 06:12 am W 2.9 5.1----29.90- 66.6 64.6----
2024-04-18 06:06 am W 5.1 7.0----29.89- 66.7 64.8----
2024-04-18 06:00 am W 4.1 7.0----29.89+0.04 66.7 64.8----
2024-04-18 05:54 am W 4.1 7.0----29.89- 66.7 64.8----
2024-04-18 05:48 am W 5.1 8.0----29.88- 66.7 64.8----
2024-04-18 05:42 am W 4.1 8.0----29.88- 66.6 64.8----
2024-04-18 05:36 am W 5.1 8.0----29.88- 66.6 64.8----
2024-04-18 05:30 am W 2.9 8.0----29.88- 66.6 64.9----
2024-04-18 05:24 am W 5.1 6.0----29.88- 66.6 64.9----
2024-04-18 05:18 am W 5.1 7.0----29.87- 66.4 64.9----
2024-04-18 05:12 am W 2.9 8.0----29.87- 66.2 64.9----
2024-04-18 05:06 am W 4.1 6.0----29.87- 66.2 64.9----
2024-04-18 05:00 am W 5.1 7.0----29.86+0.00 66.4 64.9----
2024-04-18 04:54 am W 2.9 7.0----29.86- 66.7 64.9----
2024-04-18 04:48 am W 4.1 6.0----29.85- 67.1 64.9----
2024-04-18 04:42 am W 4.1 6.0----29.85- 67.3 64.9----
2024-04-18 04:36 am W 4.1 8.0----29.85- 67.3 64.9----
2024-04-18 04:30 am W 5.1 8.0----29.86- 67.6 64.9----
2024-04-18 04:24 amWNW 1.9 7.0----29.86- 68.2 65.1----
2024-04-18 04:18 am W 5.1 11.1----29.86- 68.4 65.1----
2024-04-18 04:12 am W 4.1 9.9----29.86- 68.4 65.1----
2024-04-18 04:06 am W 4.1 8.0----29.86- 68.4 65.1----
2024-04-18 04:00 am W 4.1 8.0----29.86-0.01 68.9 65.1----
2024-04-18 03:54 am W 4.1 8.9----29.86- 69.1 65.1----
2024-04-18 03:48 am W 5.1 12.0----29.86- 69.3 65.1----
2024-04-18 03:42 am W 5.1 8.9----29.86- 69.6 65.1----
2024-04-18 03:36 am W 7.0 12.0----29.86- 70.0 65.1----
2024-04-18 03:30 am W 5.1 9.9----29.86- 70.0 65.1----
2024-04-18 03:24 amWSW 6.0 9.9----29.85- 70.0 65.3----
2024-04-18 03:18 amWSW 7.0 8.9----29.85- 70.2 65.3----
2024-04-18 03:12 amWSW 8.9 15.0----29.85- 70.5 65.3----
2024-04-18 03:06 amWSW 6.0 8.9----29.85- 70.5 65.3----
2024-04-18 03:00 am W 6.0 12.0----29.85-0.04 70.7 65.3----
2024-04-18 02:54 amWSW 7.0 12.0----29.85- 70.9 65.3----
2024-04-18 02:48 amWSW 6.0 12.0----29.85- 70.9 65.3----
2024-04-18 02:42 am W 8.9 15.0----29.86- 71.2 65.3----
2024-04-18 02:36 amWSW 9.9 14.0----29.85- 71.6 65.3----
2024-04-18 02:30 amWSW 8.9 13.0----29.85- 71.6 65.3----
2024-04-18 02:24 amWSW 8.0 15.9----29.85- 71.4 65.3----
2024-04-18 02:18 amWSW 8.0 13.0----29.86- 71.6 65.3----
2024-04-18 02:12 am W 8.9 14.0----29.86- 71.8 65.3----
2024-04-18 02:06 amWSW 8.0 13.0----29.86- 71.6 65.3----
2024-04-18 02:00 amWSW 7.0 11.1----29.86-0.07 71.4 65.3----
2024-04-18 01:54 am SW 7.0 11.1----29.86- 71.1 65.3----
2024-04-18 01:48 amWSW 6.0 8.9----29.87- 70.9 65.5----
2024-04-18 01:42 am SW 5.1 9.9----29.87- 71.1 65.5----
2024-04-18 01:36 amWSW 7.0 11.1----29.87- 71.2 65.5----
2024-04-18 01:30 amWSW 6.0 8.9----29.88- 71.1 65.5----
2024-04-18 01:24 amWSW 6.0 8.9----29.88- 70.7 65.5----
2024-04-18 01:18 amWSW 5.1 8.9----29.88- 70.7 65.7----
2024-04-18 01:12 amWSW 6.0 8.0----29.88- 70.0 65.7----
2024-04-18 01:06 amWSW 5.1 7.0----29.88- 67.6 65.7----
2024-04-18 01:00 am SW 6.0 8.0----29.88-0.05 66.6 65.7----
2024-04-18 12:54 am SW 6.0 8.0----29.88- 66.2 65.7----
2024-04-18 12:48 am SW 6.0 8.9----29.88- 65.8 65.8----
2024-04-18 12:42 am SW 6.0 8.0----29.88- 65.8 65.8----
2024-04-18 12:36 am SW 6.0 8.0----29.89- 65.7 65.8----
2024-04-18 12:30 am SW 5.1 8.0----29.89- 65.3 66.0----
2024-04-18 12:24 am SW 5.1 7.0----29.89- 65.3 66.0----
2024-04-18 12:18 am SW 5.1 7.0----29.89- 65.3 66.0----
2024-04-18 12:12 am SW 5.1 8.0----29.89- 65.3 66.0----
2024-04-18 12:06 am SW 5.1 8.0----29.89- 65.3 66.0----
2024-04-18 12:00 am SW 5.1 8.0----29.90-0.02 65.3 66.2----
2024-04-17 11:54 pm SW 6.0 9.9----29.90- 65.5 66.2----
2024-04-17 11:48 pm SW 6.0 9.9----29.90- 65.7 66.2----
2024-04-17 11:42 pm SW 8.0 11.1----29.90- 65.7 66.2----
2024-04-17 11:36 pm SW 6.0 8.9----29.91- 65.8 66.4----
2024-04-17 11:30 pmSSW 7.0 8.0----29.91- 65.8 66.4----
2024-04-17 11:24 pm SW 7.0 8.9----29.91- 66.0 66.4----
2024-04-17 11:18 pm SW 7.0 8.9----29.92- 66.2 66.4----
2024-04-17 11:12 pm SW 7.0 8.0----29.92- 66.2 66.4----
2024-04-17 11:06 pm SW 8.0 9.9----29.93- 66.2 66.4----
2024-04-17 11:00 pm SW 7.0 9.9----29.93+0.01 66.2 66.4----
2024-04-17 10:54 pm SW 6.0 9.9----29.93- 66.0 66.4----
2024-04-17 10:48 pm SW 7.0 9.9----29.93- 66.2 66.6----
2024-04-17 10:42 pm SW 7.0 9.9----29.93- 66.2 66.6----
2024-04-17 10:36 pm SW 8.0 9.9----29.93- 66.4 66.6----
2024-04-17 10:30 pm SW 7.0 11.1----29.93- 66.6 66.6----
2024-04-17 10:24 pm SW 6.0 9.9----29.93- 66.0 66.6----
2024-04-17 10:18 pm SW 7.0 13.0----29.93- 65.8 66.6----
2024-04-17 10:12 pmWSW 8.0 12.0----29.93- 65.8 66.6----
2024-04-17 10:06 pm SW 8.0 12.0----29.93- 66.2 66.6----
2024-04-17 10:00 pmWSW 6.0 11.1----29.93+0.00 66.4 66.4----
2024-04-17 09:54 pmWSW 7.0 8.9----29.92- 66.2 66.4----